Location: Althorst
(53.6379°N, 10.7715°E)
Time: 16:01:23
(UTC+00:00)

Cosmos 2251 Rocket - Pass Details

Date: 10 December 2019
Orbit: 765 x 791 km, 74.0° (Epoch: 27 January)

Event Time Altitude Azimuth Distance (km) Brightness Sun altitude
Rises 17:27:04 0° 217° (SW) 3,255 7.5 -20.8°
Reaches altitude 10° 17:29:30 10° 221° (SW) 2,327 6.7 -21.2°
Maximum altitude 17:34:43 59° 301° (WNW) 892 4.0 -21.9°
Enters shadow 17:38:01 22° 15° (NNE) 1,630 5.0 -22.4°
